Theta_e
357 356 357 357 356 355 348 342 322 329 328 318 320 324 319 332 332 331 332 335 332 337 338 337 336 334 335 331 333 335 338 333 331 325 324 341 357 359 360 360 361 360 360 361 363 365 364 362 364 365 365 365 366 366 367 367 368 368 367 366 366 366 366 366 366 366 366 366 366 366 366 366 365 365 366 365 365 364 364 363 363 363 362 361 362 362 362 362 361 361 361 362 360 360 360 360 360
357 359 359 359 354 353 338 345 326 323 322 318 322 326 328 330 332 328 329 334 334 336 338 336 337 339 337 336 336 336 335 338 339 340 344 350 353 356 358 359 359 359 360 361 362 363 362 364 363 364 365 365 365 365 366 366 367 367 366 366 366 366 366 367 366 366 366 366 366 367 366 366 366 365 365 364 364 363 363 363 362 362 362 361 361 360 360 361 362 362 361 360 360 359 360 360 359
358 359 360 358 354 346 345 344 321 322 314 314 320 325 332 328 328 331 333 336 338 339 338 337 339 339 335 335 331 335 327 342 342 343 343 351 346 352 356 359 360 361 362 361 361 362 363 363 363 364 366 365 365 365 366 367 366 366 366 366 366 366 366 366 366 366 367 367 367 367 367 366 366 365 365 364 364 363 363 363 362 362 361 360 362 362 362 361 362 362 361 361 360 360 360 360 359
358 359 357 353 341 347 336 336 329 322 317 317 319 328 329 329 330 333 336 339 339 339 337 334 335 341 338 330 334 338 337 338 344 343 342 345 348 352 355 357 361 360 361 363 362 361 364 363 363 364 365 365 365 366 366 367 366 365 366 367 366 366 366 366 366 366 367 367 367 367 367 366 366 365 365 364 363 363 363 363 362 362 362 362 362 362 362 362 362 361 361 361 362 362 361 360 359
356 357 357 351 343 335 335 331 326 325 316 321 318 328 329 331 332 334 336 340 340 339 336 335 336 342 343 339 340 335 336 341 343 346 344 350 355 355 357 358 359 359 360 362 363 363 364 363 363 364 365 365 365 366 366 366 366 365 366 367 366 366 366 366 366 367 367 367 367 367 366 366 366 365 364 363 363 362 363 363 363 361 362 362 362 362 362 362 362 361 362 362 362 361 361 361 360
354 355 357 351 338 344 337 326 326 321 324 328 323 327 331 333 333 335 336 339 341 340 338 336 334 334 337 338 342 336 341 335 342 345 348 349 353 357 358 359 357 358 361 364 363 365 365 363 363 363 364 365 366 366 366 366 365 366 367 367 366 366 366 367 367 367 367 367 367 367 366 366 365 365 364 363 363 363 363 363 363 363 363 362 363 362 362 362 361 362 363 362 362 362 361 361 361
349 350 348 348 346 344 327 324 321 323 324 330 327 329 332 333 335 336 335 336 339 340 341 336 338 337 334 338 340 343 350 347 345 346 351 351 353 355 357 358 357 358 361 363 364 364 365 363 363 364 364 366 366 366 366 366 365 366 367 367 366 367 367 367 367 367 367 367 367 367 367 366 366 365 364 363 363 362 362 362 363 363 362 362 362 362 362 362 362 363 362 362 362 362 362 362 362
356 344 343 337 330 333 326 322 323 327 324 332 331 331 334 334 336 336 335 334 333 335 338 339 337 335 334 343 334 346 348 350 350 352 353 352 353 355 357 357 356 357 360 363 365 364 363 362 363 363 364 366 366 366 366 366 366 367 367 367 367 367 367 367 367 368 368 368 367 367 366 366 365 365 364 363 363 363 363 363 363 363 362 361 361 361 362 362 362 363 363 362 361 361 361 361 361
349 347 349 338 329 329 326 321 322 328 327 330 331 335 336 336 337 335 334 336 335 339 338 338 337 334 334 338 338 346 347 351 351 354 352 352 352 356 356 356 355 356 358 361 362 361 363 363 364 364 365 365 366 366 366 366 366 367 367 367 367 367 367 368 368 368 368 367 367 366 366 365 364 364 364 364 363 363 363 363 363 363 362 361 361 361 361 362 362 362 362 361 362 361 361 361 361
346 343 336 332 330 322 321 321 322 325 328 331 332 333 335 336 336 337 334 333 336 338 339 341 340 334 337 334 337 343 345 350 350 350 352 351 352 356 356 356 357 356 357 360 362 360 361 365 365 365 365 365 365 365 365 366 366 367 367 367 367 368 368 368 368 368 367 367 367 366 365 365 365 364 364 364 363 363 363 362 361 361 361 362 361 362 361 362 363 362 362 362 361 362 361 361 362
337 343 343 332 326 319 316 317 321 325 326 331 333 336 337 337 336 336 336 335 338 337 339 341 336 337 337 336 341 349 349 349 348 347 351 351 353 355 355 358 357 357 357 359 361 361 363 364 366 366 366 366 366 364 363 366 366 366 367 367 367 368 368 368 368 367 367 367 366 366 365 364 364 364 364 363 363 363 362 361 361 361 361 361 362 362 361 361 362 362 363 362 361 361 361 361 362
336 337 338 328 324 321 317 318 319 323 327 330 330 335 338 336 337 334 334 332 335 336 336 339 336 340 334 334 338 345 347 348 348 349 351 353 352 355 356 357 358 358 359 360 361 362 361 362 364 364 363 364 363 364 365 365 366 366 366 367 367 368 368 368 367 367 367 367 366 366 365 364 364 364 363 363 362 362 362 361 361 361 361 361 362 363 362 361 361 362 362 362 361 361 361 361 361
338 336 332 326 326 324 321 319 318 322 324 327 329 334 339 336 335 335 335 336 335 334 335 341 342 341 332 335 341 346 343 346 349 350 353 353 355 356 357 356 358 358 359 362 361 362 362 359 358 362 362 364 365 365 365 366 366 366 365 367 368 367 368 367 367 367 367 366 366 366 365 364 364 364 363 363 362 362 363 361 362 361 360 362 361 361 361 360 361 361 361 361 361 361 361 360 361
338 339 334 326 329 325 323 319 321 319 320 327 333 335 337 335 336 338 337 333 334 334 339 344 341 341 336 337 338 339 341 347 349 351 353 355 356 356 356 356 357 357 360 363 362 363 362 360 358 358 363 366 366 365 365 366 366 366 366 367 367 367 367 367 367 367 367 367 366 366 365 364 364 364 363 362 362 362 362 362 361 361 361 361 361 360 360 360 360 361 361 361 361 361 360 360 361
339 343 334 330 325 324 322 320 319 320 319 328 332 334 335 337 338 337 337 334 336 343 343 346 344 339 330 334 334 337 342 348 350 352 352 355 355 356 356 357 357 357 358 358 361 361 363 363 358 359 362 362 364 364 366 367 366 367 367 367 367 367 367 367 367 367 367 366 366 366 365 364 364 363 363 362 362 361 362 362 361 360 360 361 360 359 360 361 361 361 361 361 361 361 360 360 360
344 340 335 327 325 323 320 321 322 322 321 330 332 335 334 336 339 336 337 340 339 343 342 337 344 335 338 338 339 343 345 348 350 351 352 353 355 355 355 356 356 356 358 357 359 362 363 362 362 361 359 362 362 362 364 367 367 367 367 367 367 366 367 367 367 367 366 366 366 365 364 366 365 364 363 363 363 362 362 362 361 361 360 359 360 360 360 360 361 361 361 361 361 362 363 361 362
346 340 330 328 322 321 320 322 322 319 324 330 334 333 329 332 340 341 345 343 337 337 339 342 339 344 339 342 345 346 347 350 351 350 350 351 353 351 352 353 354 354 355 356 361 361 362 363 363 363 365 365 360 361 363 366 366 367 367 367 366 366 366 366 366 366 366 365 366 365 364 365 366 365 365 366 363 364 363 361 361 361 360 360 359 361 361 361 361 361 362 362 361 363 364 362 363
340 331 328 323 325 322 324 323 324 326 326 329 331 333 330 330 337 341 343 339 339 339 338 341 343 341 346 348 348 348 348 347 348 347 347 348 349 348 348 351 352 351 353 354 358 362 363 364 366 366 366 367 364 363 363 364 366 366 367 368 368 368 367 367 368 366 365 368 363 366 367 364 363 364 367 361 367 365 365 362 361 361 360 360 361 362 363 362 361 362 362 363 364 363 364 367 363
334 330 328 324 326 327 330 329 329 328 326 329 330 333 332 331 336 341 335 335 337 335 338 340 339 343 347 347 347 347 347 346 346 346 345 346 346 346 345 348 350 351 351 353 356 357 362 363 365 365 366 368 365 365 362 363 366 366 365 365 365 365 366 368 366 366 367 368 368 366 364 365 363 363 364 363 366 360 363 363 361 361 362 363 362 362 362 363 362 362 361 362 362 361 367 364 362
337 331 327 325 329 329 331 331 330 332 331 327 327 331 332 335 336 343 332 334 337 334 335 337 338 340 342 345 345 346 345 345 346 345 344 345 346 346 346 346 348 351 352 353 354 357 358 360 364 366 367 368 366 365 364 362 366 365 363 364 364 365 366 366 366 367 367 368 365 366 363 364 363 364 363 362 360 364 365 359 361 361 362 362 357 364 364 364 361 362 361 363 366 369 363 360 360
337 332 326 330 333 329 331 333 333 332 331 327 327 330 330 335 338 338 333 331 333 334 338 338 338 341 342 345 345 345 344 344 344 345 345 344 345 346 346 348 347 349 353 354 355 356 358 359 359 364 367 367 367 364 363 360 366 362 363 363 364 362 364 365 366 367 367 368 365 363 362 362 362 364 363 363 364 365 366 367 366 366 367 368 361 367 366 364 364 364 365 361 361 360 360 361 363
337 331 333 333 333 329 333 333 334 333 332 328 328 327 328 337 337 336 334 330 325 331 337 341 342 344 344 343 344 345 344 343 343 343 343 344 345 345 346 348 349 351 353 352 353 356 357 359 360 360 365 366 365 361 361 361 363 363 363 362 362 364 364 364 365 366 364 365 363 363 363 362 361 362 363 361 363 364 362 365 364 365 366 367 367 366 364 366 364 364 363 362 360 362 362 365 364
325 332 333 335 335 333 337 336 334 334 332 328 326 330 331 332 332 336 335 333 332 339 338 342 344 346 346 346 345 344 344 343 342 343 343 343 344 346 346 347 347 347 350 352 355 356 358 359 361 361 360 363 363 364 362 362 360 362 363 363 362 361 362 363 362 363 364 364 362 363 359 360 360 359 361 361 361 363 362 361 362 365 365 365 366 365 364 365 364 362 362 363 361 361 363 365 363
330 324 330 333 334 333 336 336 337 336 332 329 330 331 328 330 326 334 333 336 336 341 342 344 346 348 347 344 345 343 344 344 343 345 345 344 345 345 346 346 347 349 351 351 354 355 358 358 361 362 361 361 363 364 363 361 361 361 361 363 362 359 361 361 361 361 364 364 364 364 361 362 358 358 362 360 360 363 362 363 364 363 364 364 366 365 364 363 363 364 365 364 362 362 359 360 360
329 326 328 330 334 334 335 335 334 333 332 333 332 327 326 329 329 331 332 335 338 342 345 346 348 347 346 345 344 345 345 345 345 345 346 347 347 348 348 347 348 348 348 350 353 354 357 358 361 360 361 362 362 361 361 361 361 361 361 362 360 362 362 361 361 364 363 363 363 364 364 360 360 361 360 361 362 364 363 363 362 362 364 363 365 363 364 364 365 363 363 363 363 363 361 360 360
331 329 331 331 331 332 332 331 330 329 330 330 327 326 327 328 332 329 331 336 339 343 346 347 347 346 345 344 345 345 345 345 346 345 345 346 346 346 346 347 347 347 348 350 351 352 356 358 358 359 360 361 361 360 361 360 361 360 361 362 362 362 361 363 365 361 362 363 361 364 362 362 361 359 361 363 361 363 364 365 365 363 362 364 362 363 364 362 363 363 362 361 361 362 361 361 361
332 331 330 329 329 330 330 327 328 329 328 329 326 325 324 327 326 323 333 337 341 343 345 346 345 344 344 344 345 346 346 345 345 346 346 346 346 346 346 347 347 348 349 349 350 351 355 357 357 359 360 362 362 360 360 362 362 361 362 362 363 363 362 363 363 363 361 362 363 366 365 365 363 362 362 362 362 363 364 365 364 365 362 362 364 363 365 364 362 361 362 360 360 362 362 363 361
326 326 326 326 327 328 327 326 325 326 323 326 326 323 324 324 325 324 328 338 343 342 344 345 345 345 345 345 345 347 347 347 348 347 344 344 344 345 346 346 347 348 348 349 351 354 352 355 356 358 359 361 362 360 361 361 362 361 363 362 361 363 364 361 361 362 362 361 363 365 367 364 365 364 364 364 364 363 362 361 363 364 363 364 366 365 366 365 364 363 365 366 365 364 362 362 360
325 325 318 319 321 319 322 321 322 324 321 324 323 320 319 321 322 329 330 341 343 342 343 344 344 345 345 346 345 347 347 348 348 346 346 347 348 348 346 348 348 348 350 352 353 354 351 354 354 358 359 361 362 360 360 361 361 361 361 362 362 362 363 363 362 362 362 363 366 366 365 366 367 365 364 364 363 361 362 364 363 365 366 367 367 369 367 367 365 362 361 363 362 360 359 360 359
322 320 317 315 315 315 319 322 322 322 323 324 322 311 315 320 327 329 333 342 341 340 342 343 343 345 345 346 345 347 348 348 347 347 348 348 349 349 349 350 351 351 351 354 354 353 353 354 354 356 358 359 361 361 360 359 360 361 362 361 363 363 361 360 362 363 361 362 364 365 365 366 365 365 366 364 362 361 363 364 365 365 366 368 369 370 365 365 361 362 361 361 360 361 356 359 351
315 317 317 311 310 312 321 320 321 318 323 321 322 312 315 319 326 328 336 341 339 338 341 342 343 344 345 345 345 346 348 349 347 349 349 350 351 351 351 351 352 353 354 353 353 355 355 355 354 353 357 358 360 360 360 360 361 360 359 361 361 362 362 362 360 362 360 362 364 364 366 367 366 367 367 366 363 361 360 363 364 365 368 370 366 368 365 364 363 361 360 362 360 359 359 353 351
316 312 309 312 310 313 318 319 318 317 319 321 320 313 315 319 325 329 337 338 338 337 340 341 342 343 344 345 345 345 346 348 349 348 349 350 351 351 352 352 353 353 355 356 356 356 356 356 356 354 356 357 359 360 360 360 360 360 359 359 361 363 359 360 360 360 361 361 363 365 367 367 367 368 366 367 363 362 360 361 364 368 371 369 369 368 368 364 364 361 362 362 358 358 356 350 351
314 311 309 309 311 312 315 318 320 320 320 322 319 314 317 318 325 332 337 335 336 336 338 340 342 343 344 344 345 346 346 347 348 349 350 351 351 352 353 354 353 355 356 356 356 357 357 357 357 355 353 355 358 358 361 360 360 359 361 358 358 360 357 358 359 362 362 364 363 363 367 367 367 366 367 367 366 363 360 363 364 369 371 368 369 367 365 365 364 358 363 364 362 360 351 348 349
308 312 309 312 311 313 311 316 317 318 317 316 319 315 317 319 324 332 334 333 335 334 337 340 342 343 345 345 345 345 346 346 346 348 350 351 352 353 354 356 355 356 357 358 358 357 357 358 357 357 356 354 357 358 359 358 358 360 359 358 359 358 358 357 359 360 361 361 365 363 366 368 367 367 367 366 365 363 364 365 366 370 370 370 369 368 366 366 365 363 361 364 360 361 351 348 347
306 307 307 309 313 314 313 313 316 317 318 315 317 317 318 319 322 329 332 333 333 333 336 339 341 343 344 344 344 345 346 346 347 350 351 352 352 353 354 356 356 356 357 358 359 360 359 359 358 358 358 357 357 358 359 359 359 361 359 359 358 359 360 359 359 360 361 362 360 364 367 368 367 368 366 366 365 363 363 364 368 370 370 368 368 367 366 366 365 365 362 361 364 359 351 351 350
308 309 308 310 309 311 311 316 317 316 314 314 315 314 316 318 320 327 331 332 332 333 336 339 341 342 345 344 344 345 346 347 350 351 352 352 353 353 354 356 356 357 358 359 360 361 360 360 360 359 359 357 359 358 358 355 356 355 353 356 355 356 358 358 361 359 361 360 360 362 367 367 366 366 367 367 367 366 365 365 368 371 370 368 368 365 363 362 365 366 365 361 363 355 354 352 350
309 309 309 309 310 312 316 317 316 316 314 314 315 316 316 317 318 322 330 332 333 333 334 338 341 341 343 343 344 345 347 347 350 352 352 353 352 354 355 356 356 356 358 359 359 360 360 359 359 358 358 359 358 355 354 353 352 353 355 352 352 353 356 359 359 361 361 359 362 364 368 366 367 367 367 367 367 367 368 368 370 372 371 369 367 366 367 366 370 367 362 365 359 352 351 352 351
308 308 307 307 310 309 315 316 318 317 313 314 317 315 315 317 319 319 327 329 329 331 333 337 339 341 343 344 344 345 348 350 350 351 352 352 352 354 354 355 356 354 356 358 358 359 360 361 359 359 359 359 358 357 356 356 357 355 354 353 354 355 356 356 358 361 359 360 364 367 368 367 366 367 367 369 369 370 371 368 371 370 370 368 369 369 369 369 370 367 365 361 359 351 350 347 349
308 307 308 307 308 311 314 316 316 316 314 313 315 314 315 318 319 321 322 328 330 331 333 336 340 341 342 343 344 346 347 348 349 350 351 351 352 352 354 355 356 356 356 357 359 360 361 360 361 362 359 359 358 359 360 359 360 361 358 358 357 355 360 361 360 360 362 360 364 369 368 367 367 367 368 369 368 370 371 370 370 370 371 370 368 368 370 370 369 366 364 355 352 354 351 352 352
306 305 304 304 310 308 307 313 315 316 315 313 316 313 314 317 320 320 321 328 331 332 333 335 338 340 342 343 345 345 346 347 347 349 349 350 351 353 354 354 355 355 356 356 357 358 359 360 361 361 361 361 360 360 361 363 364 364 364 362 361 360 359 362 363 362 364 363 362 368 369 366 367 366 367 368 369 369 372 371 370 368 371 372 369 367 369 368 369 366 361 357 355 348 347 347 350
306 306 305 305 307 309 309 311 312 314 314 314 313 311 311 315 315 317 320 325 329 331 332 334 338 340 343 344 346 347 346 348 348 349 350 350 351 352 354 355 355 354 355 356 356 356 357 359 361 362 362 362 362 363 363 365 364 364 363 364 365 362 364 362 361 360 363 364 362 365 367 367 367 366 367 368 367 369 370 371 369 370 370 372 369 366 368 367 367 364 361 359 355 348 342 344 350
305 307 306 307 308 307 309 311 311 309 309 314 311 305 307 314 316 316 319 323 326 330 332 333 336 339 342 342 344 347 347 351 350 349 350 351 352 354 355 356 355 355 356 357 357 358 359 359 361 363 363 364 363 364 365 365 362 361 359 357 354 355 356 357 357 356 357 358 356 359 367 367 365 367 368 368 368 367 370 370 372 370 370 369 369 364 366 367 367 362 360 359 355 354 349 344 343
303 305 309 308 308 308 308 308 308 304 303 311 315 305 304 314 314 317 319 324 326 330 332 334 337 339 341 342 343 345 345 347 351 351 351 351 352 352 354 355 355 355 356 358 359 359 359 360 362 363 363 362 364 365 366 364 363 363 361 357 356 356 355 358 361 360 360 359 361 361 363 367 367 366 366 368 368 368 368 370 371 370 368 367 368 367 365 365 364 361 361 358 356 355 353 345 344
302 309 309 309 307 306 307 308 307 306 311 312 312 310 305 305 312 318 321 322 324 328 331 334 335 340 339 342 342 345 345 347 349 350 351 352 353 353 353 356 356 354 356 357 358 359 360 362 362 363 362 363 365 365 364 364 362 362 361 360 358 357 357 358 362 364 364 364 363 362 362 366 369 368 366 368 368 368 368 369 371 370 367 366 365 365 364 365 365 363 363 361 359 357 353 348 344
305 309 310 309 309 308 307 307 306 306 306 303 308 312 305 305 311 318 318 316 320 324 328 333 335 338 340 341 342 344 346 347 348 349 350 351 352 353 355 356 357 357 357 357 358 360 361 363 364 363 363 365 366 367 364 363 363 362 361 361 358 359 361 361 364 364 362 364 365 365 364 366 369 371 368 366 369 369 368 368 370 369 367 366 367 365 363 364 364 363 363 361 359 357 356 352 347
309 310 311 311 310 309 308 305 305 305 304 300 305 309 304 304 311 313 316 315 316 320 324 330 335 336 339 339 342 343 346 347 348 349 351 352 353 354 355 357 358 356 357 360 360 361 362 364 364 364 364 365 366 367 365 364 364 364 362 362 361 360 361 362 363 363 364 366 365 366 365 365 366 369 370 368 370 370 369 369 368 367 367 364 364 363 364 364 364 364 364 362 361 357 357 352 349
313 310 308 308 307 307 307 306 306 304 298 300 305 308 306 300 308 310 312 313 317 318 321 325 333 336 338 340 341 342 344 346 347 349 351 353 354 355 356 355 357 358 358 359 360 362 363 364 364 364 365 365 366 364 363 362 363 364 362 363 363 363 362 361 361 363 364 366 364 364 365 365 366 365 366 369 369 370 370 370 367 366 367 366 366 365 364 362 361 363 363 363 362 358 356 353 350
310 307 306 305 304 306 305 304 306 298 296 303 307 306 307 298 304 311 315 318 319 320 319 321 325 334 337 339 339 340 343 346 347 347 348 352 353 354 355 356 357 358 359 359 359 361 362 364 365 364 366 366 365 364 363 361 362 363 365 365 365 365 365 361 361 361 364 364 364 362 364 364 366 365 367 364 367 367 370 370 370 368 366 367 365 367 365 364 363 363 362 362 362 359 358 354 351
308 307 306 299 298 299 296 300 295 295 295 303 305 306 302 301 307 312 315 316 318 321 321 321 324 332 337 339 340 340 342 345 347 348 349 350 351 352 353 355 358 358 358 359 359 360 361 364 365 365 365 366 365 364 362 362 363 364 364 364 366 367 365 365 363 362 364 364 364 363 363 363 365 365 365 365 366 369 368 371 371 368 367 368 369 367 366 366 366 363 362 362 362 360 357 355 350
306 304 302 298 296 295 291 296 299 299 302 305 305 307 301 306 310 314 313 316 318 320 323 323 323 326 336 339 341 339 342 344 346 347 348 350 351 352 353 355 356 358 358 358 359 360 362 362 365 365 365 366 365 364 364 362 362 364 365 365 366 367 366 366 364 362 363 364 365 364 363 362 364 364 364 366 365 368 369 372 373 372 372 370 369 368 367 367 367 363 364 363 361 361 359 357 353
305 308 304 302 301 297 294 296 294 295 299 303 305 301 300 301 305 313 315 317 318 320 321 323 324 324 332 339 340 340 341 344 346 348 348 349 351 353 353 354 355 357 358 358 359 360 362 362 364 365 366 367 366 365 364 362 362 364 364 366 367 368 366 365 364 364 364 364 364 365 365 364 363 365 365 369 371 369 371 372 374 372 371 371 370 367 365 367 367 366 365 364 362 361 359 357 353
308 308 308 303 301 306 299 302 300 299 299 299 302 300 305 305 314 316 318 317 318 318 318 319 321 322 324 333 335 336 338 341 344 346 348 350 352 354 353 354 355 356 358 358 359 359 360 361 364 365 365 367 366 364 364 363 364 364 365 365 365 367 367 366 365 366 365 365 367 366 366 367 366 366 369 370 371 371 371 372 373 372 373 371 369 368 367 365 365 364 364 363 363 361 358 358 355
306 306 301 303 310 307 302 303 303 303 302 299 306 303 305 310 311 314 315 315 316 317 318 318 320 322 325 328 333 336 337 340 343 345 347 350 351 353 353 355 355 356 356 358 360 361 361 361 362 364 365 367 366 366 364 363 363 363 365 365 365 366 365 365 364 365 363 366 368 367 365 366 368 368 368 370 371 373 373 373 372 371 372 371 371 369 366 365 366 365 363 363 363 360 359 359 355
308 301 305 310 312 309 304 297 301 298 294 297 302 300 303 302 300 311 311 311 313 314 315 317 320 322 324 328 333 336 337 339 343 347 349 350 351 353 353 353 355 355 356 357 360 362 362 362 363 363 364 365 366 365 364 364 364 364 366 366 367 367 364 366 365 365 366 365 366 368 366 365 366 366 367 368 370 371 372 373 372 371 372 371 370 368 367 366 366 363 365 364 364 363 360 359 358
309 306 313 304 299 298 304 302 294 295 294 296 299 302 302 304 305 311 311 310 311 314 316 316 317 319 322 327 331 336 338 339 342 345 347 349 350 351 354 353 354 355 358 359 359 360 360 361 362 362 364 364 365 364 364 364 365 364 365 366 366 366 365 367 367 367 367 365 364 365 366 365 366 368 368 369 370 369 371 371 372 371 370 370 370 368 368 366 366 363 363 363 363 364 361 359 359
312 313 308 311 308 303 300 301 303 302 297 298 298 301 299 308 308 310 311 314 315 314 315 316 317 318 321 326 328 331 336 338 340 343 345 348 349 351 352 352 352 354 356 357 357 357 357 358 360 362 364 365 365 365 366 365 365 366 365 365 367 368 369 368 367 367 365 365 365 365 366 364 366 366 367 368 368 368 368 369 369 367 367 368 369 367 367 367 365 364 363 362 362 363 360 359 358
304 305 305 306 306 310 308 306 302 300 298 298 299 297 303 311 313 311 312 315 317 317 317 318 318 319 320 324 327 330 335 338 341 343 345 348 349 349 351 353 352 354 356 356 356 356 356 357 358 360 361 362 362 363 364 365 365 365 366 367 367 368 367 367 367 367 366 366 366 366 365 366 367 366 367 367 368 368 368 368 368 368 367 368 369 368 368 367 365 363 364 365 364 363 362 360 360
306 305 304 306 303 302 299 298 306 303 300 296 298 297 307 309 312 313 313 315 315 316 317 319 322 321 324 324 328 332 335 340 342 342 344 346 349 349 349 352 353 351 352 353 354 355 355 356 356 357 358 359 360 361 364 365 365 364 365 365 367 368 367 367 367 366 366 365 366 366 367 368 366 367 368 366 368 368 368 368 367 369 369 368 369 369 367 366 364 364 364 364 364 363 363 362 360
Wind_Speed
10 10 9 8 6 3 6 6 3 4 3 3 3 6 4 5 4 5 6 7 7 5 4 8 9 7 3 6 10 5 7 5 6 3 5 7 12 13 13 16 15 14 13 12 12 12 14 12 14 15 15 15 15 16 16 15 15 14 15 16 16 16 15 14 14 14 13 13 13 13 13 13 13 13 13 13 13 13 13 13 12 12 12 11 11 11 11 11 11 11 11 11 10 10 10 10 10
9 10 9 8 6 5 4 5 3 3 5 2 5 4 8 6 5 3 7 3 5 7 6 9 8 6 4 9 9 11 12 10 10 11 11 13 16 13 15 16 16 16 14 13 13 12 13 14 14 16 16 15 15 17 16 16 15 15 15 16 15 15 15 14 13 13 13 13 13 13 13 13 13 13 13 13 13 13 13 12 11 12 12 11 11 11 11 11 11 11 11 11 10 10 10 9 10
7 8 7 6 5 7 3 5 4 7 4 7 7 8 4 4 7 6 6 5 9 9 9 10 9 6 8 8 6 6 7 7 14 14 12 15 15 12 17 17 15 15 16 13 13 12 11 13 12 16 18 17 15 16 13 14 16 16 16 15 15 15 15 14 14 13 13 13 13 13 13 13 13 12 13 13 13 12 12 12 12 12 11 10 11 11 11 11 11 11 11 11 10 10 10 10 9
7 5 5 4 3 4 4 6 7 6 4 7 8 6 6 6 9 9 7 9 9 9 10 11 6 4 3 7 7 10 10 8 11 14 11 12 10 15 17 18 16 13 13 11 13 13 12 14 12 16 16 17 17 16 14 13 15 15 16 15 15 15 14 14 13 13 13 13 13 13 13 12 12 12 12 12 12 12 12 11 11 11 10 11 11 11 11 11 11 11 11 11 10 10 9 9 9
7 5 5 5 4 3 5 4 5 4 6 6 7 7 7 7 9 8 9 8 10 9 10 9 7 7 11 9 3 2 9 12 13 12 12 10 15 15 17 17 15 14 12 12 12 12 13 16 14 15 16 16 16 15 14 13 15 15 15 15 15 14 14 13 13 13 13 12 12 12 12 12 12 12 12 12 11 11 11 11 11 10 11 11 11 10 11 11 11 11 12 11 11 10 9 9 9
5 5 5 5 3 4 4 5 3 4 6 5 7 7 7 8 8 9 10 9 9 8 7 8 4 8 6 7 5 7 8 7 12 11 12 13 18 18 17 15 14 14 13 12 12 10 13 15 15 16 16 17 16 15 14 14 15 15 15 15 14 14 14 13 13 13 12 12 12 11 11 11 12 12 12 11 11 11 11 11 11 10 10 11 11 10 11 11 11 11 11 11 11 10 9 9 9
5 5 4 6 6 4 5 3 4 4 9 4 7 7 7 8 9 11 11 10 7 7 5 5 7 9 7 7 10 8 6 11 9 12 11 18 18 18 17 14 14 15 15 12 11 12 16 15 16 17 17 17 16 16 16 15 15 15 15 15 14 14 14 13 13 13 12 12 11 11 11 11 11 11 11 10 10 10 10 10 10 11 10 10 10 10 10 10 10 10 10 10 10 10 9 9 9
3 6 3 5 3 6 4 2 4 2 7 4 5 7 7 9 10 9 11 9 9 8 8 7 9 3 9 6 5 6 8 7 12 14 17 17 18 17 15 14 14 14 14 12 12 13 18 19 17 18 17 15 16 17 16 15 15 15 15 15 14 14 13 13 13 12 12 11 11 11 10 10 11 11 10 10 9 9 10 9 10 10 10 10 10 10 10 10 10 10 10 10 10 10 9 9 8
5 6 4 4 5 3 3 2 6 4 7 3 6 8 6 9 7 9 9 5 10 7 9 10 8 6 7 7 9 8 7 10 14 17 18 18 19 17 12 14 14 13 14 13 13 14 15 18 17 17 16 15 14 15 15 15 15 15 15 15 14 13 13 13 12 12 11 11 11 11 10 10 10 10 9 9 9 9 8 8 8 9 9 10 9 9 10 10 10 10 10 9 9 9 9 8 8
5 4 2 4 4 3 2 5 3 5 5 4 5 6 7 7 8 6 7 8 7 9 9 8 6 4 10 10 9 8 8 13 16 17 17 18 19 15 15 15 15 16 15 14 13 14 12 17 17 16 17 16 16 16 16 16 15 15 15 15 14 13 13 12 12 11 11 11 11 11 10 10 10 9 9 8 8 8 7 7 7 8 9 9 9 9 9 10 10 9 9 9 8 8 8 8 7
4 4 4 6 4 1 4 6 5 8 5 5 6 6 6 6 7 6 5 8 8 9 10 8 7 10 8 9 7 6 12 14 16 19 18 18 18 15 15 14 15 16 14 15 15 14 14 15 18 17 17 17 16 17 16 16 15 15 15 14 14 13 12 12 11 11 11 10 10 10 10 9 9 9 9 8 7 7 6 6 7 8 8 8 9 8 9 9 9 9 9 8 8 8 8 8 7
4 4 4 6 3 4 5 4 5 8 5 4 8 6 5 6 6 6 7 8 9 9 9 11 7 10 9 9 6 8 14 16 17 18 18 18 15 16 15 13 15 15 15 15 15 14 14 15 15 18 19 18 17 16 16 15 15 15 14 14 13 13 12 12 11 11 10 10 10 10 9 8 8 8 8 7 6 5 6 6 6 7 7 8 8 8 8 8 8 8 8 8 8 7 7 7 7
5 4 5 6 3 1 4 1 9 4 7 6 8 6 5 6 4 5 6 7 7 8 9 7 11 8 9 7 9 12 15 17 17 18 19 16 14 13 13 14 15 15 15 15 15 14 15 15 14 15 16 18 16 15 15 15 14 14 14 14 13 12 12 11 11 11 10 9 9 9 9 7 7 7 7 6 5 5 5 5 5 6 6 7 7 7 7 8 8 8 7 7 7 6 6 6 7
6 3 5 5 2 3 2 4 3 5 8 8 6 6 5 5 4 5 5 7 7 5 8 7 9 6 10 11 10 12 14 17 18 19 15 16 14 13 14 14 15 15 15 14 14 14 14 14 14 14 14 14 13 14 15 14 14 14 14 13 13 12 12 11 11 10 9 9 9 9 8 7 7 7 6 5 5 5 4 4 5 6 6 6 6 7 7 7 7 7 7 6 6 6 5 6 6
5 2 5 5 4 4 2 2 4 4 9 5 7 6 6 3 4 4 3 6 7 8 9 7 5 9 8 10 11 14 17 20 19 18 17 15 16 14 14 13 14 15 14 16 13 14 14 13 13 13 14 13 13 11 11 12 14 14 13 13 12 12 11 11 10 10 9 8 8 8 8 7 6 6 5 5 5 4 4 4 5 5 5 5 6 6 6 6 6 7 7 6 5 5 5 4 4
3 4 3 4 3 4 6 2 2 1 8 3 8 6 4 5 4 5 4 2 8 7 9 7 6 2 6 7 14 17 22 21 19 18 16 17 15 14 13 14 13 14 12 14 14 11 13 13 13 12 12 13 13 11 11 12 13 13 13 12 12 11 11 10 10 9 9 8 7 7 7 6 7 6 6 6 5 4 3 5 4 5 5 5 5 6 6 6 6 6 6 5 4 4 3 3 3
4 5 6 4 4 4 6 2 2 5 6 5 7 6 5 5 5 4 6 5 9 10 8 5 7 2 4 4 17 20 22 21 20 20 18 15 13 12 12 12 11 12 10 13 13 13 14 13 14 11 12 13 14 13 11 12 12 14 12 12 12 11 10 10 9 9 9 8 8 7 6 5 5 5 5 4 6 4 5 3 4 4 4 4 4 5 5 5 5 5 5 5 3 3 1 2 3
5 6 5 5 2 2 5 4 6 2 6 4 4 5 4 5 7 6 6 7 6 9 7 7 6 2 5 12 19 21 21 23 22 21 18 16 13 13 12 12 12 13 12 12 13 12 12 12 13 12 11 14 12 11 9 9 11 12 11 11 10 10 10 10 9 8 8 7 7 6 5 4 4 3 4 3 3 4 5 3 3 2 3 3 5 4 5 4 4 5 3 3 2 2 4 4 5
7 5 6 4 1 7 2 5 5 5 6 5 1 3 5 4 7 8 7 8 9 10 8 9 8 8 11 16 20 21 22 21 21 21 21 20 16 17 15 13 13 13 13 12 12 14 12 11 13 13 13 12 13 11 9 10 12 10 11 10 8 10 9 9 7 7 6 6 6 5 4 3 3 3 2 2 1 3 3 3 2 1 1 2 2 2 0 2 1 2 1 1 2 5 6 1 1
9 7 5 5 1 3 0 1 2 4 5 5 4 1 5 3 5 8 6 6 9 9 9 10 11 12 14 18 20 21 22 22 21 20 21 20 18 17 16 15 15 14 13 12 12 12 13 11 13 12 13 13 11 9 9 10 10 10 9 9 8 8 8 7 7 6 6 6 5 4 4 3 3 3 4 4 5 4 6 7 4 4 6 5 1 5 7 5 1 3 2 4 8 1 3 2 3
7 9 7 1 2 5 3 2 1 3 5 6 5 2 4 4 4 6 5 4 7 7 9 12 14 15 18 19 21 21 22 22 22 21 20 19 17 16 15 15 14 14 11 12 12 12 13 13 13 12 12 12 12 9 10 9 9 9 8 8 8 7 7 7 6 6 6 6 6 4 4 4 4 3 4 3 3 2 1 2 4 3 1 2 1 1 0 2 2 3 2 3 3 1 2 4 3
4 9 9 5 3 5 6 1 1 4 5 5 3 2 1 3 6 8 7 5 2 4 8 11 12 17 20 21 21 21 22 23 23 22 22 21 20 18 15 14 15 13 12 11 13 13 14 13 13 12 12 12 12 10 10 9 10 8 8 8 8 7 7 7 6 6 6 6 5 5 4 5 4 3 3 2 2 2 2 1 1 1 2 1 1 1 3 2 2 2 2 2 2 2 2 3 4
9 10 10 9 7 8 2 3 2 4 6 6 5 2 2 7 6 8 9 10 1 4 4 10 12 17 18 19 20 20 22 22 23 23 22 22 20 19 18 16 15 15 13 13 13 12 13 14 13 13 13 12 13 10 9 9 9 8 8 8 8 7 7 7 6 6 5 6 5 4 5 4 4 4 3 3 2 2 2 2 1 1 0 0 1 1 1 1 2 2 2 3 3 3 2 2 2
12 8 5 8 8 11 7 8 8 8 8 8 6 6 8 6 10 7 10 9 8 2 4 10 13 16 18 20 21 21 21 22 22 21 21 21 20 20 19 18 16 14 13 14 13 13 13 15 14 14 12 12 11 11 10 9 8 9 8 8 7 7 6 7 6 6 5 6 5 4 4 3 4 4 3 3 3 2 2 1 1 1 1 0 2 1 2 3 2 2 2 3 2 2 2 2 3
13 12 11 8 7 7 7 9 10 10 10 8 8 10 10 9 9 6 10 10 9 5 9 12 16 17 18 19 20 20 20 19 19 19 18 16 18 17 16 14 16 15 16 16 13 13 15 14 15 15 13 14 12 11 11 9 9 9 8 8 8 7 7 6 6 6 6 5 6 5 5 4 4 3 3 3 3 2 2 1 1 1 0 1 1 1 1 2 2 2 3 3 3 3 3 3 3
15 15 8 7 8 8 9 10 11 10 7 7 9 12 10 10 9 13 9 10 10 9 13 15 17 18 18 19 20 20 20 21 19 19 19 18 18 20 18 16 16 17 16 16 15 14 14 14 16 16 14 13 12 12 10 9 9 9 8 8 7 7 7 6 6 6 5 6 6 6 5 4 3 3 3 2 2 2 2 2 2 2 1 0 1 2 2 2 2 2 2 2 3 3 4 3 3
4 12 13 12 11 10 10 12 11 9 9 8 10 11 10 7 8 6 10 10 12 13 14 16 17 18 18 18 18 18 20 21 21 18 17 17 18 18 18 17 17 17 16 17 16 14 14 15 15 15 14 13 12 12 10 10 9 9 9 8 8 7 7 6 6 6 6 6 5 5 5 4 4 4 2 3 3 3 3 2 2 1 2 1 1 1 1 1 1 2 3 4 3 4 4 3 2
5 4 7 10 10 11 12 13 13 9 9 10 12 13 10 8 9 9 3 13 16 15 16 17 16 16 16 18 18 17 17 17 16 18 20 20 16 17 19 16 17 17 17 17 15 14 15 17 16 15 14 13 12 12 11 10 10 9 9 8 8 7 7 7 6 6 5 5 5 5 5 5 5 3 2 2 3 2 3 2 2 2 1 1 1 1 2 2 2 2 1 1 2 3 3 2 3
10 9 11 12 11 12 12 13 12 9 10 8 7 12 13 10 14 14 8 15 17 16 17 18 17 16 17 17 17 16 16 17 16 16 18 17 16 15 18 17 16 16 14 16 15 16 17 17 15 15 15 13 13 13 11 10 9 9 9 8 8 7 7 7 6 6 5 5 5 6 5 5 4 4 3 4 3 3 3 3 3 2 2 1 2 2 2 1 1 1 1 1 2 3 3 3 2
9 10 10 11 11 12 14 14 14 11 8 6 6 9 7 13 15 10 11 15 16 16 16 17 16 16 16 17 16 16 16 18 18 17 16 16 16 17 18 18 17 15 13 13 16 17 14 13 13 13 14 14 14 12 11 10 10 9 8 8 7 8 7 7 6 6 6 5 6 6 6 6 5 4 4 4 4 4 3 4 3 2 1 1 1 1 2 1 0 1 2 3 2 3 2 2 1
10 10 10 10 10 10 8 7 8 11 7 8 9 9 8 7 12 8 13 16 17 17 17 17 16 17 16 17 16 16 18 18 19 19 19 18 16 15 17 17 17 16 12 14 17 17 15 14 13 13 14 15 14 13 11 10 9 9 8 8 7 7 7 6 7 6 6 6 6 6 7 7 6 5 4 3 4 4 4 4 3 3 1 1 2 1 2 1 1 1 1 2 2 3 2 2 1
8 8 11 10 11 9 8 7 8 12 10 9 8 10 10 2 9 9 12 13 15 14 16 17 17 16 17 17 17 16 17 18 19 19 19 19 17 15 17 18 17 17 15 14 15 15 16 15 14 14 16 16 15 14 13 11 10 9 9 8 8 8 7 7 6 6 6 6 6 6 8 7 7 6 5 5 4 5 5 4 3 3 1 3 1 1 2 2 0 1 1 3 3 3 2 0 1
9 11 10 13 12 11 10 12 9 12 10 7 12 9 7 5 6 11 11 12 14 13 14 16 17 18 17 16 16 15 16 17 18 19 19 18 17 15 15 17 17 17 15 15 16 16 16 16 15 15 17 17 15 15 13 12 11 10 10 9 9 9 9 7 7 7 7 6 6 6 7 7 7 6 6 6 5 5 5 5 3 3 3 2 2 2 2 2 1 1 1 1 2 2 2 1 2
11 11 11 10 11 11 11 8 7 7 9 10 12 12 12 5 6 8 10 10 12 12 13 15 15 15 16 15 16 16 17 17 19 19 20 19 16 17 15 15 17 17 15 16 16 16 16 15 15 14 14 16 14 14 13 12 11 10 10 9 10 9 10 8 7 7 7 7 7 7 6 7 7 7 6 6 5 6 5 5 4 3 3 3 3 3 2 2 1 1 1 0 2 1 1 0 1
11 12 11 12 10 9 9 10 9 8 8 11 10 13 12 11 4 8 9 10 11 12 12 14 15 15 15 14 15 17 17 18 19 18 21 20 19 18 15 16 16 17 14 16 16 15 14 14 13 13 13 15 14 14 13 12 11 10 10 10 10 10 9 8 7 7 7 7 7 7 7 7 6 7 7 7 6 6 6 6 5 4 4 3 3 4 2 2 2 1 2 1 1 0 1 2 3
15 12 11 12 12 13 14 11 6 6 7 10 13 12 11 9 8 8 8 10 11 11 11 12 14 15 16 15 15 15 16 18 16 18 20 19 17 17 15 15 16 16 15 15 16 16 15 14 13 13 13 14 13 13 12 12 11 11 11 11 11 11 10 9 8 8 8 8 8 7 7 7 6 6 7 7 7 6 6 5 5 4 4 4 4 4 2 2 3 3 2 1 1 1 1 1 1
8 12 12 13 14 12 11 10 3 4 9 12 13 14 13 11 9 4 8 10 11 11 12 12 14 15 16 16 16 16 17 17 16 19 20 20 20 18 16 15 16 17 16 17 17 17 16 15 14 15 13 14 13 13 13 13 13 12 11 12 11 10 10 9 8 8 8 8 7 7 7 7 7 7 7 7 7 6 6 5 5 5 5 5 4 4 3 3 3 2 0 1 0 2 2 1 1
11 9 12 12 14 13 12 10 7 5 7 10 10 11 12 12 11 10 9 11 12 12 14 15 16 17 16 18 18 17 15 12 16 16 19 20 18 19 17 15 16 18 17 17 18 18 17 17 16 15 14 14 14 14 13 12 12 11 11 11 10 10 10 9 9 8 8 8 8 7 7 7 7 7 7 7 7 6 6 6 5 5 5 4 4 4 4 3 3 2 1 0 2 1 1 1 3
13 12 10 12 13 13 12 10 5 6 6 10 11 14 15 14 13 13 10 13 11 13 14 15 16 17 15 16 18 16 15 15 17 18 19 19 21 21 17 16 16 18 18 18 17 17 17 16 15 15 14 14 14 14 13 12 11 11 11 10 10 8 9 9 8 8 8 8 8 8 8 7 8 7 8 8 7 7 7 6 6 5 5 4 4 4 4 4 3 3 3 2 1 1 1 1 1
12 13 13 14 12 11 11 13 12 11 10 10 10 13 11 12 12 12 10 13 12 13 15 15 15 17 17 17 16 16 17 16 18 19 20 20 20 19 18 17 16 17 17 17 18 18 15 15 15 15 14 15 14 14 14 13 12 11 10 8 9 8 7 8 8 8 8 9 9 9 8 8 9 8 9 9 8 8 8 7 6 5 5 5 5 4 4 5 3 3 3 2 1 2 3 3 2
16 17 15 14 13 12 12 2 5 5 8 11 11 13 14 14 15 13 13 14 13 13 14 14 14 14 15 14 15 16 19 19 18 19 19 20 20 20 19 17 17 17 17 17 18 17 13 17 16 16 15 15 14 15 15 13 13 12 10 8 8 8 7 8 8 9 9 9 9 9 9 9 9 9 9 9 9 8 8 7 6 6 5 5 5 5 4 4 4 4 3 2 3 2 2 3 2
14 19 19 15 13 14 10 12 8 6 10 11 11 10 14 14 17 17 11 11 13 12 13 15 15 14 14 15 16 17 17 17 18 20 21 21 20 19 19 19 19 17 17 17 17 17 16 15 16 16 14 14 14 16 15 13 12 12 12 10 10 10 10 10 11 10 10 10 10 9 9 10 10 9 9 9 10 9 8 8 7 6 6 5 5 5 3 3 3 4 3 2 3 3 3 1 3
14 13 17 18 16 13 12 9 10 12 12 7 8 11 12 10 15 11 8 10 13 12 13 14 14 14 14 14 15 16 17 17 17 17 18 20 20 20 20 20 20 19 18 17 16 17 18 16 17 17 15 13 14 15 18 13 14 12 13 13 12 12 11 10 9 9 9 9 8 9 9 10 10 10 10 10 10 10 9 8 8 7 7 6 5 5 4 4 4 4 3 3 2 3 3 3 3
14 8 9 15 19 17 14 12 12 11 10 11 7 8 12 13 13 10 9 12 12 13 13 13 14 15 15 15 16 16 17 18 17 19 20 20 21 22 23 22 20 19 18 17 17 16 18 18 17 18 15 14 14 15 18 15 13 12 13 14 12 11 11 10 10 10 9 8 9 10 9 8 10 10 10 10 10 10 9 9 8 8 7 7 6 5 5 4 3 3 3 3 3 3 4 3 4
11 9 6 9 14 17 15 13 11 11 12 13 13 15 13 15 14 13 12 13 13 14 14 15 15 16 16 16 16 18 18 19 19 18 20 21 22 22 21 21 21 19 18 18 17 17 17 17 17 17 17 17 15 17 16 16 14 13 13 12 12 10 10 9 8 9 9 9 9 9 9 9 9 10 10 10 10 11 10 9 9 8 8 7 6 6 6 5 5 5 5 4 4 5 4 4 3
15 4 4 7 9 12 14 12 12 12 12 17 14 14 14 16 13 13 14 16 15 14 14 15 17 17 16 16 17 18 18 18 19 20 20 21 21 21 21 19 19 19 18 18 17 16 16 16 17 20 20 15 14 17 16 17 16 13 13 13 14 11 10 9 9 9 10 9 10 10 9 9 9 9 10 11 10 11 10 10 9 9 9 8 7 7 6 5 5 5 6 5 5 6 5 5 5
11 12 9 9 10 9 10 11 10 10 17 18 16 17 16 16 14 14 14 13 13 14 13 13 15 17 18 17 17 17 17 17 17 19 19 21 21 20 19 20 20 19 17 18 18 17 17 17 18 20 19 15 15 16 17 18 17 15 13 15 15 14 13 12 10 10 10 10 10 11 10 9 9 9 9 10 11 11 11 10 10 10 9 8 7 7 7 7 6 6 6 6 6 7 6 6 6
15 9 10 9 9 9 8 8 10 13 16 12 16 16 18 17 17 13 15 13 14 14 14 14 14 18 17 16 16 17 18 18 18 18 19 19 19 20 19 20 20 20 19 19 19 18 18 17 18 20 19 17 15 15 18 18 17 16 15 15 15 15 14 12 13 13 12 12 11 10 9 9 9 9 9 9 10 12 10 10 10 10 9 8 8 7 7 6 6 6 6 6 6 8 7 7 6
15 12 11 11 9 8 10 10 14 16 13 7 12 16 16 23 21 5 6 13 17 15 13 13 14 15 17 17 18 16 17 18 17 18 17 18 19 20 21 21 20 20 19 21 20 19 18 18 19 20 19 19 17 18 20 19 17 17 16 15 15 14 15 14 13 13 12 11 10 11 10 10 9 10 10 11 11 12 10 10 10 9 8 8 8 7 7 7 6 6 6 7 7 8 8 8 7
16 15 13 13 12 12 10 12 9 10 13 12 6 11 16 14 12 17 21 15 9 11 12 11 13 13 15 17 17 16 16 17 17 18 18 18 18 20 21 21 21 20 22 21 21 19 18 17 20 21 20 20 19 19 19 18 19 18 16 15 14 13 14 14 13 13 13 11 11 11 12 11 10 11 11 11 11 11 10 10 10 10 9 9 9 8 8 8 7 7 7 8 9 8 8 9 8
15 14 14 12 10 9 10 9 13 13 8 10 12 5 10 9 5 8 17 17 17 13 11 10 11 11 12 15 15 17 17 18 17 18 19 20 21 22 20 21 21 20 22 21 19 19 18 18 19 21 21 21 21 20 18 19 18 18 16 15 15 13 13 13 13 12 12 12 12 12 11 11 11 10 11 10 10 11 11 10 11 11 10 10 10 9 9 9 8 8 7 8 7 8 9 9 8
14 14 12 13 15 8 9 5 10 9 9 8 13 12 4 7 4 4 2 9 15 16 16 15 15 16 15 14 15 15 16 17 18 19 20 21 20 21 19 19 20 20 22 21 22 20 20 19 20 21 22 21 21 20 19 19 18 16 18 18 19 15 12 12 12 11 12 12 12 12 12 12 11 10 10 10 11 11 11 11 11 11 11 11 11 10 10 9 9 9 8 8 9 7 9 11 8
13 14 17 16 11 12 10 8 5 7 6 11 8 12 13 10 10 9 7 6 8 10 11 12 12 14 14 14 14 16 16 17 17 19 19 21 20 20 20 21 20 20 20 21 22 22 22 20 20 21 21 20 21 21 20 19 18 18 19 19 19 16 16 16 14 15 15 13 12 12 12 12 12 11 10 10 11 11 11 12 11 11 12 11 12 11 11 10 10 10 9 10 9 9 9 11 9
10 15 15 12 12 12 10 10 7 10 12 10 11 15 11 10 10 11 19 18 16 16 15 14 13 13 14 14 14 15 16 17 20 20 19 20 21 22 21 20 21 22 23 23 23 22 21 20 21 21 21 22 21 21 21 19 19 19 18 18 18 17 17 17 15 14 14 12 12 12 12 12 13 12 11 10 11 12 12 12 11 11 11 12 12 12 11 11 10 10 10 10 10 9 10 10 9
12 11 12 14 14 14 10 7 13 11 13 10 13 14 14 11 10 3 8 15 16 16 16 16 15 15 15 15 17 16 17 16 16 17 17 18 20 21 22 23 25 25 23 23 23 22 20 20 20 22 23 23 23 20 20 18 19 16 16 18 19 18 17 16 14 14 13 14 15 14 14 13 12 12 12 12 12 12 12 12 12 12 11 12 12 12 12 11 11 10 11 11 11 10 10 10 9
19 10 13 14 9 11 12 12 7 8 10 9 11 14 12 9 11 12 7 9 11 12 14 15 16 16 15 15 15 16 16 15 16 16 18 19 21 23 23 23 23 22 22 21 23 21 23 23 22 21 21 20 20 20 19 19 20 18 17 17 18 17 17 15 14 14 14 15 15 15 15 14 14 12 13 13 13 13 13 13 13 13 13 13 13 12 12 12 11 11 11 11 11 12 12 11 11
17 16 13 13 11 6 9 10 13 10 10 10 8 9 6 5 7 12 14 9 8 8 9 11 12 14 17 16 15 15 15 15 15 16 17 20 20 21 21 21 21 20 18 18 19 21 21 20 22 23 22 22 23 22 21 19 18 19 19 19 19 19 19 16 17 16 16 15 14 15 14 13 12 13 13 14 14 14 14 13 14 13 13 13 13 13 12 12 12 12 12 12 11 12 13 11 11
17 16 15 14 14 12 12 12 10 13 10 7 8 9 2 5 3 7 11 12 13 13 12 10 11 12 12 11 14 14 14 16 16 17 17 17 17 18 18 17 16 18 20 21 20 20 20 21 21 22 22 21 23 22 20 19 19 18 21 20 20 19 18 17 18 17 17 16 15 15 15 14 14 14 14 14 15 13 13 14 14 13 13 13 13 13 13 12 13 13 13 11 12 13 13 11 11
Wind_Direction
185 186 176 178 175 176 155 196 240 190 242 213 103 85 46 100 94 152 112 138 131 128 100 120 124 132 22 55 92 87 51 47 16 28 101 138 139 137 135 137 137 141 138 139 137 140 143 151 135 133 132 131 128 126 123 123 120 119 124 127 124 123 122 125 124 122 121 120 118 115 113 110 105 102 100 97 94 91 90 88 86 85 84 86 87 83 81 82 81 79 80 80 80 83 85 89 89
171 176 177 171 181 167 201 177 281 185 238 116 81 68 85 105 175 84 122 121 94 133 138 127 119 83 104 107 109 119 63 43 39 90 97 125 136 137 139 141 144 141 141 141 142 143 145 141 140 137 134 136 136 132 127 128 128 128 130 126 124 124 127 127 125 124 124 122 120 117 114 110 106 103 100 97 94 90 88 86 86 83 78 74 75 78 80 81 78 76 76 76 73 75 76 76 86
171 175 173 176 187 211 277 218 266 141 229 84 54 71 167 130 85 95 102 98 113 133 136 118 112 117 119 148 109 352 94 77 96 108 114 135 134 146 147 144 141 143 140 143 142 144 146 141 145 138 137 139 138 135 127 131 133 132 128 126 126 130 131 129 128 128 127 125 122 119 115 111 107 104 100 95 92 88 86 84 83 83 83 85 82 80 76 76 76 75 72 72 75 72 77 77 72
169 178 180 176 211 209 243 216 257 350 72 60 73 72 77 76 91 90 98 106 123 139 136 138 129 26 240 137 78 89 95 100 112 124 129 149 139 146 145 143 140 141 139 141 144 147 148 144 154 141 138 140 141 138 135 134 132 129 129 128 131 131 131 131 131 131 129 127 123 117 115 111 107 102 97 93 90 86 83 82 81 83 84 81 78 77 75 72 70 69 69 71 73 74 72 73 81
165 174 209 213 268 216 272 290 314 301 51 40 90 89 81 92 99 109 108 124 136 142 157 137 114 87 54 68 38 60 78 106 120 131 136 129 133 142 144 143 145 142 142 143 141 141 143 142 149 145 143 143 142 139 138 140 135 133 132 130 132 132 132 134 135 133 129 126 121 117 113 109 105 100 95 92 89 85 81 78 77 76 77 77 76 74 72 71 69 70 70 69 72 76 77 77 72
164 186 204 241 255 352 297 247 180 68 56 0 81 70 81 97 112 111 123 134 139 145 139 152 128 148 112 57 19 96 131 139 137 134 139 132 144 143 143 149 146 144 141 142 143 140 142 140 150 149 149 146 145 142 142 142 139 136 132 132 133 135 137 138 137 133 129 125 120 116 111 108 104 100 95 92 88 85 81 78 76 76 72 74 74 73 72 71 72 71 73 74 73 74 77 78 78
171 197 210 226 251 238 275 339 63 45 75 341 62 102 99 110 115 130 132 133 144 128 156 144 116 128 126 115 88 80 42 118 148 133 142 142 142 145 146 150 147 142 141 143 142 140 141 144 151 153 151 147 146 148 146 143 143 138 134 135 136 138 140 140 139 134 130 125 121 117 113 109 104 99 97 94 90 85 83 80 76 75 75 75 75 71 71 70 68 70 71 72 77 78 79 78 79
182 229 204 256 232 212 249 51 69 3 88 9 54 95 119 118 136 138 137 156 146 163 166 147 169 111 78 177 98 88 123 154 116 132 135 142 145 145 150 146 145 143 142 138 137 134 140 153 154 153 152 146 147 150 146 145 145 140 137 138 139 141 143 143 140 135 130 127 123 118 114 108 103 100 100 95 90 85 81 76 73 71 72 70 69 68 68 70 70 69 69 70 70 75 77 79 79
197 243 283 268 267 224 260 74 80 52 102 108 90 60 114 129 143 137 147 123 147 151 163 167 158 174 122 121 96 119 119 117 124 127 140 145 147 150 151 149 147 145 143 140 134 137 145 149 151 150 149 149 150 148 148 149 148 143 141 141 141 144 145 144 139 134 131 129 124 119 115 110 105 103 99 95 89 84 79 77 76 74 70 68 66 66 65 64 65 66 68 71 70 71 74 79 84
215 256 291 299 306 257 142 96 148 78 77 76 95 121 132 144 137 157 126 139 137 147 148 160 174 92 145 111 112 142 132 130 129 138 140 151 149 151 149 151 147 147 145 140 136 141 139 150 152 153 152 153 153 151 152 151 150 146 143 142 145 147 146 144 139 134 134 131 126 120 117 113 109 104 99 94 92 87 83 81 77 72 70 69 65 62 62 61 60 61 63 65 71 69 70 72 76
215 214 273 262 226 347 66 87 94 140 109 122 111 123 128 144 148 131 140 110 139 140 134 154 166 135 143 116 84 91 139 137 146 145 150 149 152 153 151 150 150 149 146 143 142 140 142 150 154 154 155 153 154 155 153 151 151 147 144 145 147 149 147 142 140 137 136 132 129 123 117 116 111 105 101 96 94 90 87 81 73 70 70 68 64 62 59 60 59 60 62 63 62 67 69 71 72
256 240 215 280 317 6 63 50 83 90 96 125 112 136 140 134 149 139 128 143 148 137 154 185 136 152 135 140 136 142 150 152 153 148 150 152 153 154 152 151 152 152 148 143 141 143 149 148 154 152 154 154 154 152 151 151 149 146 145 148 150 150 147 145 142 141 138 135 129 123 119 115 112 108 102 100 93 94 88 82 77 73 67 63 58 56 56 56 56 54 59 61 62 61 64 68 75
248 287 272 269 349 320 48 185 81 96 119 117 113 126 140 144 142 125 130 123 154 157 148 189 120 176 140 135 121 143 160 158 149 153 152 155 155 155 155 152 155 152 147 147 141 143 148 151 150 156 152 151 152 151 152 151 148 147 150 152 153 152 149 147 145 143 140 136 131 126 121 118 115 112 109 105 100 90 86 76 70 69 62 59 56 54 55 54 52 52 55 57 59 59 61 62 64
247 322 302 293 304 267 259 73 136 137 95 95 104 130 148 153 119 111 130 138 147 164 125 128 160 165 114 114 145 156 159 154 149 155 154 156 154 155 156 152 156 155 150 143 141 147 154 155 152 156 152 157 154 155 154 152 150 152 154 154 154 153 151 148 147 144 142 136 133 128 126 129 123 120 118 112 108 97 87 75 67 59 60 57 50 50 53 51 49 50 55 57 56 61 64 66 71
246 265 272 285 284 248 125 232 86 104 95 116 96 138 146 118 120 129 146 125 104 82 111 150 141 182 157 165 160 165 161 154 155 156 158 153 153 156 155 156 155 156 159 149 146 157 153 157 157 155 161 161 159 162 160 156 156 155 156 156 155 155 152 150 148 146 144 141 135 136 133 137 131 129 130 126 121 113 106 134 61 57 52 47 48 47 50 48 47 49 52 56 65 63 66 78 89
246 266 276 272 247 279 122 223 130 110 93 97 119 122 151 117 155 167 124 4 107 133 156 141 189 337 124 189 152 153 154 153 157 159 154 155 154 155 155 158 157 161 163 157 146 170 154 164 159 161 165 164 166 165 161 160 160 159 159 158 157 156 154 152 150 149 147 146 144 141 144 153 160 155 153 152 134 128 75 31 63 54 45 41 44 44 39 43 44 52 52 55 70 71 72 91 104
232 261 252 234 229 219 107 230 216 78 80 107 128 153 168 149 151 106 102 135 153 148 180 115 178 115 185 105 139 143 153 150 157 159 156 157 159 161 161 162 160 166 166 166 161 163 161 162 164 162 168 169 169 166 162 164 159 163 162 161 161 160 158 157 154 154 157 153 158 153 165 196 163 155 165 158 155 137 105 110 52 51 38 28 42 49 40 45 44 48 54 50 66 73 56 184 121
219 226 246 236 279 254 70 19 40 64 37 76 158 177 189 155 163 144 177 168 158 152 176 138 133 127 86 113 136 143 149 155 160 160 162 161 166 163 166 165 167 169 170 170 169 163 163 165 165 165 168 170 172 166 164 167 160 174 168 165 169 165 166 164 167 172 173 159 170 163 191 175 171 161 141 167 137 146 125 86 70 41 32 36 40 41 37 37 33 43 37 30 33 242 229 224 146
215 223 246 271 159 65 14 61 46 358 41 13 347 199 234 172 184 156 192 171 157 167 166 159 148 127 114 132 138 149 154 159 163 166 166 167 170 167 169 169 174 168 174 173 172 173 168 166 169 170 170 171 171 170 168 167 166 174 173 172 168 176 169 181 178 177 178 170 174 182 183 183 163 159 159 84 46 90 120 102 100 36 57 53 18 320 237 80 48 115 89 239 242 218 238 358 352
219 255 242 238 40 91 126 149 5 356 343 356 5 217 232 140 189 151 224 168 176 184 168 172 164 147 144 141 150 151 159 162 167 170 170 171 173 170 171 170 175 175 173 175 173 175 175 173 171 171 170 170 172 173 172 169 171 174 177 175 175 178 178 184 185 184 178 179 177 190 188 157 176 173 122 166 218 199 153 179 175 209 206 183 308 242 176 154 261 179 179 247 213 240 356 347 11
183 230 241 288 54 239 153 252 7 12 348 354 354 63 237 175 196 196 211 208 202 216 190 181 172 161 151 152 156 157 164 167 172 173 173 173 176 174 175 175 177 175 176 176 173 177 179 179 176 174 170 174 178 173 176 174 173 178 178 180 179 181 184 184 184 186 181 185 187 190 192 167 188 190 172 181 223 161 121 180 183 173 115 116 234 59 302 64 205 104 181 212 52 346 10 356 6
223 232 243 267 203 246 117 185 12 333 332 323 356 265 246 147 215 220 223 222 187 203 193 190 169 162 156 158 161 164 167 172 175 177 178 177 177 176 173 176 177 176 177 182 179 176 180 182 181 177 173 179 181 179 181 174 175 183 182 182 183 186 186 187 186 186 181 190 194 199 189 168 200 194 176 204 186 191 199 162 165 123 154 126 167 356 31 24 345 61 37 21 1 39 8 12 355
243 225 239 245 259 270 291 259 252 293 307 320 314 337 271 193 223 219 225 217 349 33 140 174 165 161 159 158 161 169 171 174 179 179 180 180 179 179 175 177 178 178 180 185 180 179 179 183 183 182 180 179 184 184 184 181 184 186 184 185 186 187 187 188 192 190 185 185 199 194 201 187 193 192 181 185 215 214 197 202 150 119 123 75 52 334 36 20 355 13 31 11 355 6 14 350 348
235 257 224 225 235 247 253 259 270 274 280 285 294 300 257 231 246 213 225 209 242 180 141 153 149 155 156 162 168 173 174 176 179 182 182 183 182 181 179 179 180 177 181 185 182 182 180 184 183 183 182 181 185 186 187 186 188 188 184 184 198 183 192 194 195 188 182 188 196 194 230 203 200 193 177 185 198 213 206 219 150 226 173 158 67 309 14 16 351 21 18 0 0 348 346 316 355
223 241 248 258 248 253 256 257 259 265 269 270 267 267 255 241 252 242 216 210 205 162 152 144 148 157 163 166 169 172 173 179 179 182 183 184 184 184 183 180 182 179 182 185 182 182 184 184 182 186 183 186 186 187 190 189 188 193 185 189 196 178 202 200 193 187 190 191 183 200 210 213 210 206 177 191 192 194 203 205 217 198 95 308 314 18 21 358 10 15 11 350 17 343 332 331 347
222 240 250 249 248 256 258 263 260 260 266 258 257 254 259 252 241 249 240 203 193 165 151 149 153 160 167 170 171 173 175 178 179 182 185 184 184 187 187 185 184 185 184 185 185 183 183 185 186 186 186 185 187 190 192 191 188 194 191 194 193 185 203 203 190 199 194 192 186 196 200 221 225 206 181 195 193 197 211 197 198 216 220 92 304 27 4 336 13 2 4 347 1 339 324 354 325
177 234 246 258 264 268 258 259 261 262 259 255 253 261 266 241 222 238 215 204 168 163 155 156 159 166 170 172 174 175 178 180 181 179 183 186 186 189 189 188 188 188 184 187 185 186 181 187 186 187 188 185 186 194 192 191 191 193 193 194 193 196 198 199 202 208 196 195 191 179 202 213 229 225 194 189 200 207 208 210 215 223 237 257 48 301 22 358 355 336 18 341 350 345 323 333 5
225 254 259 252 254 251 256 257 257 257 255 242 243 257 262 259 213 237 183 172 163 170 164 162 168 169 172 173 175 175 180 180 179 181 184 186 188 190 189 190 189 188 187 188 185 184 182 187 186 187 187 185 191 194 191 193 194 195 194 199 196 197 196 203 203 204 204 200 191 186 200 203 220 233 211 206 222 213 223 206 207 239 264 244 281 306 315 359 327 13 39 344 301 301 331 327 348
241 249 263 259 251 252 239 244 246 233 244 234 235 259 248 220 224 215 208 162 170 177 169 168 169 170 172 174 174 176 180 178 181 186 188 187 187 191 190 189 188 188 188 188 185 184 184 186 184 188 188 185 193 196 191 193 194 193 196 199 197 194 198 204 205 205 200 201 192 201 197 203 213 221 200 217 216 226 221 217 221 238 244 281 312 353 300 278 280 243 151 222 281 319 307 341 335
231 236 256 269 259 251 237 233 238 230 234 239 213 252 235 213 213 207 175 171 179 179 177 174 171 171 171 174 177 177 179 179 184 187 187 186 188 190 192 188 188 189 183 185 187 186 184 183 183 187 190 187 194 197 193 193 195 196 198 198 197 197 202 200 203 206 202 199 200 193 203 207 211 215 212 206 228 225 220 220 235 240 256 275 277 251 247 232 356 336 331 335 317 308 326 339 302
219 228 232 246 251 240 202 217 202 226 177 197 217 257 250 207 175 178 169 179 184 186 180 178 174 172 171 175 177 180 182 184 186 186 187 186 187 189 190 188 188 188 184 184 187 183 184 183 184 186 187 187 191 197 193 195 194 197 196 199 197 201 200 204 206 198 201 203 203 193 203 202 208 212 212 217 223 240 230 227 219 236 238 281 271 198 285 281 226 254 316 295 314 310 351 314 329
221 211 214 220 236 233 171 185 181 234 146 207 206 252 252 240 146 169 169 185 191 192 186 181 177 176 173 175 178 181 184 185 188 188 187 187 186 187 189 189 186 188 186 182 181 181 182 183 185 189 184 188 189 194 193 194 195 199 199 196 198 196 203 205 205 206 200 200 207 199 195 203 203 208 212 215 234 232 236 233 210 231 222 256 268 265 247 245 293 276 17 293 335 344 325 177 184
209 227 225 219 214 230 217 185 210 227 250 192 223 251 245 131 125 155 174 186 193 201 193 186 182 180 175 176 178 179 181 185 189 189 187 187 187 187 187 189 187 189 184 181 180 180 181 182 184 190 185 189 187 192 192 192 196 197 202 196 202 197 208 206 203 210 206 203 202 207 188 199 202 205 211 216 229 235 240 241 225 224 226 254 251 242 243 247 238 201 184 280 340 342 312 69 14
209 206 235 240 218 205 227 125 206 182 222 223 208 242 251 273 146 164 175 188 194 208 198 192 186 183 181 180 180 179 183 183 188 188 187 187 186 187 185 187 186 188 183 183 181 179 180 180 182 190 182 187 188 188 192 192 195 197 200 201 201 203 208 209 204 205 210 206 203 207 192 194 199 204 209 216 224 238 244 242 247 221 228 235 240 243 245 253 233 279 255 255 347 342 283 64 108
206 199 216 224 232 240 241 203 154 220 192 248 235 234 244 252 215 177 180 192 202 209 203 194 190 186 184 186 186 184 184 186 187 187 185 186 186 185 185 184 186 186 183 183 180 179 181 180 179 187 186 185 185 190 191 194 194 197 201 205 201 206 211 215 211 206 206 209 206 202 193 197 200 202 209 211 222 227 231 237 241 230 233 234 245 251 248 238 242 218 279 7 28 294 289 13 41
223 216 218 226 222 211 226 233 152 221 230 237 237 247 246 233 233 183 190 197 206 210 205 196 194 191 186 189 192 190 188 189 185 185 184 183 185 182 183 182 186 185 184 180 180 180 182 180 180 181 189 186 184 188 189 194 196 197 201 201 205 206 210 210 213 213 211 211 206 201 195 203 201 205 206 212 218 226 235 234 232 229 233 238 246 257 266 248 217 189 216 328 66 212 193 113 135
257 231 226 229 230 235 227 223 141 213 257 248 254 254 258 262 273 207 196 193 203 208 202 199 198 196 193 193 194 194 192 189 182 182 185 183 184 182 183 180 184 185 186 181 181 182 183 183 180 182 186 186 186 189 192 196 196 197 201 202 203 201 206 206 209 213 214 211 205 201 195 203 201 205 210 213 217 220 230 231 231 228 234 235 239 251 238 237 209 223 258 214 239 192 144 183 65
233 229 226 231 230 236 228 230 173 205 239 250 260 269 264 258 248 241 202 199 199 202 207 205 202 201 198 196 195 195 190 185 177 180 186 184 184 182 182 181 183 184 186 185 185 185 185 186 185 183 184 186 190 192 193 195 197 197 194 199 199 197 195 201 204 208 210 206 198 198 199 203 203 205 208 213 218 218 219 225 227 228 228 232 238 238 234 206 205 220 207 154 226 221 148 265 104
224 236 232 238 234 238 241 237 174 220 246 256 257 265 264 262 256 256 217 203 201 207 208 207 204 203 202 200 198 189 185 186 182 182 183 186 185 183 182 183 184 187 185 187 186 184 185 188 187 185 186 187 192 192 194 195 195 195 195 193 200 197 197 200 205 202 205 207 194 197 202 203 204 208 210 211 218 216 221 224 226 226 226 224 224 222 208 203 219 224 212 239 158 156 39 69 177
227 225 231 232 232 231 220 216 215 226 239 258 256 266 269 266 260 252 236 213 206 206 210 212 208 206 203 202 196 191 186 184 186 184 184 185 185 184 185 185 185 187 187 188 188 188 187 192 191 190 188 189 192 194 195 194 192 190 194 195 196 209 195 196 203 201 201 205 201 195 201 203 203 211 210 212 215 218 216 222 226 228 222 214 216 217 206 213 212 218 214 207 207 183 185 164 193
225 233 233 234 232 230 247 174 163 215 229 245 261 265 265 254 251 240 222 214 211 205 207 213 215 212 210 206 199 194 190 186 186 186 186 185 186 187 186 185 184 187 188 189 191 190 193 192 191 190 190 190 191 192 192 192 191 190 186 189 192 204 212 199 196 201 200 200 205 200 202 200 203 211 212 213 218 217 218 220 225 227 227 222 221 225 212 219 218 227 210 206 199 256 223 156 175
224 226 233 237 240 244 226 251 247 233 238 208 227 254 251 245 243 245 231 191 207 200 202 206 207 208 204 206 200 198 199 190 188 188 188 187 187 184 185 186 187 187 190 191 190 190 191 191 192 192 192 192 193 192 188 188 187 187 185 186 195 201 203 202 202 201 199 201 208 205 198 201 203 208 212 214 216 218 217 221 221 229 228 230 227 234 225 211 219 234 200 207 185 187 270 259 167
227 222 218 233 241 238 243 227 235 243 247 229 217 250 258 248 244 228 224 192 206 191 203 204 200 205 204 204 202 198 197 193 193 193 191 190 188 187 187 189 192 191 189 188 189 191 190 190 191 191 193 194 194 195 193 188 193 193 191 196 200 201 202 206 206 204 206 202 205 206 200 199 203 208 210 210 215 217 220 220 221 225 230 232 231 236 231 228 217 228 205 196 197 176 197 221 227
231 223 220 216 222 230 230 235 242 258 264 263 196 229 264 261 244 232 197 211 204 191 195 204 201 204 206 205 204 201 199 197 191 192 193 193 189 190 190 190 191 193 186 185 189 190 190 190 189 191 193 194 194 196 195 192 198 192 197 201 204 206 206 203 197 202 204 202 202 206 201 201 199 206 212 209 212 214 216 219 221 226 231 232 229 232 237 228 216 215 209 196 183 181 193 215 213
224 212 214 222 218 223 229 236 244 247 252 243 234 229 250 251 251 241 236 223 212 205 198 196 203 203 205 206 207 204 203 199 196 192 192 194 194 194 191 190 192 189 185 186 187 188 188 190 190 191 195 196 191 190 189 192 198 195 198 201 205 209 208 205 195 197 200 200 204 201 203 201 198 202 209 212 210 214 213 219 220 224 229 229 227 232 233 219 219 215 205 196 188 188 190 190 199
220 217 202 227 217 222 230 237 239 243 241 244 234 225 245 253 246 237 217 228 221 217 210 201 196 200 202 207 208 207 203 201 201 199 194 194 195 194 193 189 187 190 189 186 186 185 186 187 191 194 197 192 188 188 189 192 198 196 198 202 204 204 203 203 201 194 196 195 202 203 202 205 206 204 205 210 211 212 214 214 219 222 225 227 227 233 230 229 222 218 211 207 196 192 187 184 192
217 200 208 203 214 219 221 231 239 241 244 240 234 231 238 263 244 236 223 211 220 229 221 213 199 198 201 206 207 205 203 202 203 202 197 194 194 192 190 191 190 188 188 185 185 184 185 187 190 195 196 190 189 189 190 195 199 199 201 203 204 204 201 199 199 197 194 195 202 204 203 205 210 214 212 206 210 211 212 213 220 220 221 219 221 226 228 227 220 217 212 203 196 200 188 185 190
215 192 211 217 212 218 218 219 215 236 244 233 227 230 229 249 252 233 239 239 215 221 231 220 201 196 199 202 207 207 203 202 202 201 200 194 191 192 190 192 189 188 188 187 188 186 186 187 187 191 192 192 189 190 194 200 200 201 204 204 204 205 200 199 201 202 197 199 200 203 205 207 209 214 217 215 209 209 207 211 215 219 216 216 216 219 228 229 230 212 206 197 198 201 194 186 189
206 202 205 208 191 184 208 201 213 222 240 228 227 222 230 232 246 262 230 224 229 223 229 230 211 202 197 197 204 205 203 201 200 200 198 194 192 190 191 190 188 188 190 189 188 187 185 186 187 189 191 189 190 194 197 198 200 204 204 205 207 206 204 203 203 205 201 201 201 202 201 205 206 210 213 217 213 208 204 206 207 209 210 209 213 213 219 223 225 221 205 200 204 200 197 189 187
199 203 198 201 197 194 210 209 228 243 230 229 237 222 243 255 263 231 239 233 238 227 221 229 226 214 196 197 200 203 202 200 200 198 200 197 194 192 191 188 187 188 191 190 189 188 185 186 187 188 190 189 190 194 194 197 205 208 205 205 206 205 207 204 205 207 205 205 202 203 204 205 206 210 211 214 216 209 207 203 203 205 206 203 201 209 216 218 218 222 207 208 207 203 204 192 193
200 203 207 209 216 204 206 211 214 225 243 192 192 206 236 222 231 235 224 225 219 216 223 223 224 224 205 200 198 202 200 201 199 199 199 198 195 193 191 189 188 188 189 189 190 190 186 187 187 188 188 189 190 191 194 199 205 208 206 207 209 206 207 206 207 208 207 206 205 204 205 206 210 211 212 213 210 210 207 203 201 202 198 196 194 198 210 216 216 216 217 215 218 200 206 197 195
197 200 213 217 216 218 236 217 237 228 218 201 192 213 202 217 107 56 65 196 206 220 228 227 223 220 212 199 198 199 202 202 200 201 201 201 197 193 191 190 190 189 188 189 190 189 190 189 188 188 189 188 190 192 193 197 202 206 208 209 214 207 207 209 206 205 208 207 205 205 205 206 210 209 210 209 205 205 203 203 201 202 197 194 194 195 200 207 213 215 213 212 214 206 209 201 197
182 198 210 212 205 221 236 255 291 312 276 233 201 227 241 282 262 229 212 211 202 198 207 210 213 212 210 205 200 200 203 203 200 202 202 200 196 194 194 192 190 189 188 189 188 189 190 188 187 189 190 188 189 191 193 196 200 204 207 209 212 208 210 211 204 203 206 205 207 208 208 208 208 209 208 205 206 202 202 202 203 203 199 196 193 194 197 205 209 213 213 211 214 212 209 205 199
164 205 206 200 215 232 229 244 204 222 236 233 213 232 229 219 260 218 217 216 216 219 220 219 212 206 204 205 203 201 204 203 202 202 201 196 195 195 195 195 194 192 191 190 189 189 189 188 187 187 188 190 190 190 192 193 196 201 203 204 207 208 211 213 208 204 203 203 205 209 211 209 209 208 207 207 204 203 202 200 204 203 201 198 198 195 195 199 204 213 214 213 211 213 211 209 202
220 206 177 195 183 207 210 235 227 216 226 239 231 236 242 229 230 158 207 216 215 216 214 218 217 212 208 202 203 206 208 207 204 203 199 197 197 198 197 196 194 192 192 191 189 186 187 190 190 189 190 191 189 190 192 193 196 198 201 202 204 207 211 213 207 205 202 205 209 206 210 210 210 207 207 208 205 205 202 201 204 205 202 201 199 198 193 195 199 211 213 214 210 208 210 211 203
224 220 207 204 211 210 198 207 242 235 244 234 234 224 241 215 239 235 220 213 219 213 212 216 218 212 209 206 205 204 205 206 205 202 200 199 199 199 199 199 199 196 192 191 189 188 189 189 189 192 192 190 190 191 190 193 195 197 200 201 203 205 205 208 206 203 205 207 208 209 209 210 209 207 208 206 208 207 205 204 203 207 205 203 199 199 195 193 195 206 211 214 206 205 211 211 209
195 205 212 190 214 203 227 203 218 221 236 243 255 239 230 226 215 222 224 213 199 207 212 212 221 222 214 211 208 200 201 202 204 203 201 201 200 200 201 201 200 197 193 193 192 194 194 190 191 192 190 191 192 193 192 195 195 199 198 197 199 200 203 204 204 204 207 208 208 210 211 211 206 209 207 206 207 208 208 207 208 206 207 204 201 200 196 193 194 200 209 212 204 198 208 211 210
197 197 206 195 192 196 199 213 203 230 235 239 242 249 280 104 216 193 223 219 230 230 227 216 215 220 225 218 208 203 198 199 201 202 202 202 201 202 202 199 200 198 196 194 193 192 193 194 195 193 193 192 194 194 194 194 196 198 199 200 200 200 200 202 204 205 205 207 208 208 209 208 209 207 207 208 206 207 208 208 209 206 204 204 201 201 198 196 195 195 204 208 204 191 199 199 205